Location: Bouillancy
(49.1149°N, 2.9308°E)
Time: 21:46:27
(UTC+00:00)

ATLAS CENTAUR R/B - Pass Details

Date: 30 September 2020
Orbit: 479 x 667 km, 64.7° (Epoch: 12 October)

Event Time Altitude Azimuth Distance (km) Brightness Sun altitude
Rises 20:01:28 0° 326° (NW) 2,551 5.7 -25.2°
Reaches altitude 10° 20:04:01 10° 344° (NNW) 1,663 4.3 -25.5°
Enters shadow 20:05:28 17° 4° (N) 1,294 3.4 -25.8°
